User: anonymous   Login
Location: B
(0.0000°N, 0.0000°E)
Time: 06:27:49
(UTC+02:00)
Language:

Cosmos 1025 Rocket - Orbit

View from above orbital plane
View from above orbital plane
View from above satellite
View from above satellite

Ground track
Ground track

The orbit data is extracted from the following two-line orbital elements,

1 10974U 78067B   17295.45737682 +.00000124 +00000-0 +11039-4 0  9990
2 10974 082.4844 048.6660 0015913 282.8431 077.1007 14.87253106105364
Epoch (UTC): 22 October 2017 10:58:37
Eccentricity: 0.0015913
inclination: 82.4844°
perigee height: 595 km
apogee height: 617 km
right ascension of ascending node: 48.6660°
argument of perigee: 282.8431°
revolutions per day: 14.87253106
mean anomaly at epoch: 77.1007°
orbit number at epoch: 10536

The dashed part of the orbit path shows where the satellite is in the earth's shadow,  

DLR